LIRI Informações do Aeroporto

Informações da Pista
Pista 05 Comprimento 4577 ft Largura 148 ft
Elevação 82 ft Limite 0 ft Heading 48
Pista 23 Comprimento 4577 ft Largura 148 ft
Elevação 119 ft Limite 312 ft Heading 228
Frequências do Aeroporto
Tipo AFIS Nome SALERNO IN Frequência 119.175 MHZ
Navaids do Aeroporto
Informações meteorológicas do aeroporto e NOTAM
ADDS - METARS form results

(0937 UTC 21 February 2020)
Data provider http://aviationweather.gov/metar/data/
 
METAR text: LIRI 210850Z 00000KT CAVOK 13/M03 Q1025
Conditions at: LIRI (PONTECAGNANO (AF, IT) observed 0850 UTC 21 February 2020
Temperature: 13.0°C (55°F)
Dewpoint: -3.0°C (27°F) [RH = 33%]
Pressure (altimeter): 30.27 inches Hg (1025.0 mb)
Winds: calm
Visibility: 6 or more miles (10+ km)
Ceiling: ceiling and visibility are OK
Clouds: unknown
Weather: no significant weather observed at this time